QPF
0.01 0.00 0.00 0.00 0.00 0.00 0.00 0.00 0.00 0.00 0.00 0.00 0.00 0.00 0.00 0.00 0.00 0.01 0.01 0.02 0.01 0.02 0.01 0.01 0.00 0.01 0.02 0.02 0.02 0.03 0.03 0.02 0.02 0.02 0.01 0.02 0.01 0.01 0.01 0.00 0.00 0.00 0.00 0.00
0.00 0.00 0.00 0.00 0.00 0.00 0.01 0.00 0.00 0.00 0.00 0.00 0.00 0.00 0.00 0.00 0.00 0.00 0.01 0.01 0.01 0.01 0.01 0.01 0.01 0.02 0.03 0.03 0.03 0.04 0.04 0.03 0.02 0.01 0.01 0.01 0.01 0.01 0.01 0.00 0.00 0.00 0.00 0.00
0.00 0.00 0.00 0.00 0.00 0.01 0.01 0.01 0.00 0.00 0.00 0.00 0.00 0.00 0.00 0.00 0.00 0.00 0.00 0.01 0.01 0.01 0.01 0.01 0.01 0.02 0.02 0.04 0.04 0.04 0.05 0.03 0.02 0.02 0.01 0.01 0.00 0.01 0.01 0.00 0.00 0.00 0.00 0.00
0.00 0.00 0.00 0.00 0.00 0.02 0.03 0.02 0.01 0.00 0.00 0.01 0.01 0.01 0.01 0.00 0.00 0.00 0.00 0.01 0.01 0.01 0.01 0.01 0.01 0.01 0.02 0.02 0.04 0.04 0.04 0.05 0.03 0.02 0.01 0.01 0.00 0.00 0.00 0.00 0.00 0.00 0.00 0.00
0.00 0.00 0.00 0.00 0.01 0.01 0.04 0.04 0.02 0.01 0.00 0.00 0.00 0.01 0.01 0.01 0.01 0.00 0.00 0.00 0.01 0.01 0.02 0.01 0.01 0.01 0.02 0.02 0.03 0.03 0.04 0.05 0.04 0.02 0.01 0.01 0.01 0.00 0.00 0.00 0.00 0.00 0.00 0.00
0.01 0.00 0.00 0.00 0.00 0.01 0.02 0.03 0.02 0.02 0.01 0.01 0.00 0.00 0.00 0.00 0.00 0.00 0.00 0.01 0.01 0.01 0.02 0.02 0.02 0.02 0.01 0.02 0.03 0.03 0.03 0.04 0.04 0.02 0.01 0.00 0.01 0.00 0.00 0.00 0.00 0.00 0.00 0.00
0.01 0.01 0.00 0.00 0.00 0.00 0.01 0.01 0.02 0.02 0.01 0.01 0.00 0.00 0.00 0.00 0.00 0.00 0.00 0.00 0.01 0.01 0.02 0.02 0.02 0.02 0.02 0.03 0.03 0.03 0.03 0.03 0.03 0.02 0.00 0.00 0.00 0.00 0.00 0.00 0.00 0.00 0.00 0.00
0.00 0.01 0.00 0.00 0.00 0.00 0.01 0.01 0.02 0.01 0.01 0.01 0.01 0.01 0.01 0.00 0.00 0.00 0.00 0.00 0.01 0.01 0.02 0.02 0.01 0.02 0.02 0.03 0.04 0.03 0.03 0.04 0.03 0.02 0.01 0.00 0.00 0.00 0.00 0.00 0.01 0.01 0.01 0.00
0.00 0.00 0.00 0.00 0.00 0.00 0.00 0.00 0.01 0.01 0.00 0.00 0.01 0.01 0.01 0.00 0.00 0.00 0.00 0.01 0.01 0.02 0.03 0.03 0.02 0.02 0.03 0.03 0.04 0.04 0.04 0.04 0.03 0.02 0.01 0.00 0.00 0.00 0.00 0.00 0.00 0.00 0.01 0.01
0.00 0.00 0.00 0.00 0.00 0.00 0.00 0.00 0.01 0.01 0.00 0.00 0.01 0.01 0.01 0.00 0.00 0.00 0.00 0.01 0.02 0.02 0.03 0.03 0.03 0.02 0.02 0.05 0.04 0.04 0.04 0.03 0.02 0.01 0.01 0.00 0.00 0.00 0.00 0.00 0.00 0.00 0.00 0.00
0.00 0.01 0.01 0.01 0.01 0.00 0.00 0.00 0.00 0.00 0.00 0.01 0.02 0.02 0.01 0.01 0.01 0.01 0.00 0.00 0.01 0.02 0.02 0.02 0.02 0.03 0.03 0.03 0.04 0.03 0.03 0.03 0.01 0.01 0.01 0.00 0.00 0.00 0.00 0.00 0.00 0.00 0.00 0.00
0.01 0.01 0.01 0.01 0.01 0.00 0.00 0.00 0.00 0.00 0.00 0.00 0.01 0.01 0.01 0.01 0.01 0.01 0.01 0.01 0.01 0.02 0.02 0.02 0.02 0.03 0.03 0.03 0.03 0.03 0.04 0.04 0.02 0.01 0.01 0.01 0.00 0.00 0.00 0.00 0.00 0.00 0.00 0.00
0.01 0.01 0.01 0.01 0.01 0.01 0.00 0.00 0.00 0.00 0.01 0.01 0.01 0.01 0.01 0.01 0.01 0.02 0.02 0.02 0.01 0.02 0.02 0.03 0.03 0.03 0.04 0.03 0.03 0.03 0.03 0.03 0.02 0.02 0.01 0.01 0.01 0.00 0.00 0.00 0.00 0.00 0.00 0.00
0.01 0.01 0.01 0.00 0.00 0.00 0.00 0.00 0.00 0.00 0.00 0.00 0.01 0.01 0.01 0.01 0.01 0.02 0.02 0.02 0.02 0.03 0.05 0.06 0.04 0.03 0.04 0.04 0.04 0.03 0.03 0.03 0.02 0.02 0.02 0.01 0.01 0.00 0.00 0.00 0.00 0.00 0.00 0.00
0.01 0.01 0.00 0.00 0.00 0.00 0.00 0.00 0.00 0.00 0.00 0.00 0.00 0.00 0.01 0.01 0.02 0.02 0.01 0.02 0.03 0.03 0.03 0.05 0.04 0.04 0.05 0.05 0.05 0.04 0.04 0.04 0.03 0.02 0.02 0.01 0.01 0.00 0.00 0.00 0.00 0.00 0.00 0.00
0.01 0.01 0.01 0.00 0.00 0.00 0.00 0.00 0.00 0.00 0.00 0.00 0.00 0.00 0.01 0.01 0.01 0.01 0.01 0.02 0.02 0.03 0.03 0.03 0.03 0.04 0.05 0.05 0.05 0.05 0.05 0.04 0.03 0.02 0.02 0.02 0.02 0.01 0.00 0.00 0.00 0.00 0.00 0.00
0.02 0.02 0.02 0.01 0.00 0.00 0.01 0.00 0.00 0.00 0.00 0.00 0.00 0.00 0.01 0.01 0.01 0.01 0.01 0.01 0.01 0.02 0.02 0.02 0.02 0.03 0.03 0.04 0.04 0.04 0.04 0.04 0.03 0.02 0.03 0.03 0.02 0.01 0.00 0.00 0.00 0.00 0.00 0.00
0.01 0.03 0.04 0.02 0.01 0.01 0.00 0.00 0.00 0.00 0.00 0.01 0.01 0.00 0.01 0.01 0.01 0.01 0.00 0.00 0.01 0.01 0.02 0.02 0.02 0.01 0.02 0.03 0.04 0.04 0.04 0.04 0.03 0.03 0.03 0.02 0.01 0.01 0.00 0.00 0.00 0.00 0.00 0.00
0.01 0.02 0.04 0.04 0.02 0.01 0.00 0.00 0.00 0.00 0.00 0.01 0.01 0.01 0.01 0.00 0.00 0.01 0.01 0.00 0.00 0.01 0.01 0.02 0.02 0.01 0.01 0.02 0.03 0.03 0.05 0.04 0.03 0.02 0.02 0.01 0.01 0.00 0.00 0.00 0.00 0.00 0.00 0.00
0.01 0.02 0.04 0.04 0.03 0.02 0.00 0.00 0.01 0.00 0.00 0.01 0.01 0.01 0.01 0.00 0.00 0.01 0.01 0.01 0.00 0.00 0.00 0.01 0.00 0.01 0.02 0.03 0.02 0.02 0.04 0.03 0.02 0.01 0.01 0.01 0.01 0.01 0.01 0.00 0.00 0.00 0.01 0.01
0.02 0.03 0.03 0.04 0.04 0.02 0.00 0.00 0.01 0.01 0.00 0.01 0.01 0.01 0.01 0.01 0.01 0.01 0.01 0.01 0.00 0.00 0.00 0.00 0.00 0.00 0.01 0.02 0.02 0.02 0.02 0.01 0.01 0.01 0.02 0.02 0.02 0.01 0.02 0.01 0.01 0.01 0.01 0.01
0.02 0.03 0.03 0.03 0.03 0.02 0.00 0.00 0.00 0.01 0.01 0.01 0.01 0.01 0.01 0.01 0.01 0.01 0.01 0.01 0.01 0.01 0.00 0.00 0.00 0.00 0.01 0.01 0.01 0.02 0.02 0.02 0.02 0.02 0.03 0.03 0.02 0.01 0.02 0.03 0.03 0.02 0.02 0.02
0.03 0.02 0.02 0.03 0.02 0.01 0.00 0.00 0.00 0.01 0.01 0.01 0.00 0.01 0.01 0.01 0.01 0.00 0.00 0.00 0.00 0.01 0.00 0.00 0.00 0.01 0.01 0.02 0.02 0.02 0.02 0.04 0.05 0.04 0.03 0.03 0.03 0.02 0.02 0.03 0.04 0.03 0.02 0.01
0.03 0.02 0.02 0.02 0.01 0.01 0.00 0.01 0.01 0.01 0.01 0.01 0.00 0.00 0.01 0.00 0.00 0.00 0.00 0.00 0.00 0.00 0.01 0.01 0.01 0.01 0.01 0.01 0.02 0.02 0.02 0.04 0.05 0.05 0.04 0.03 0.03 0.03 0.03 0.03 0.03 0.03 0.02 0.02
0.04 0.03 0.02 0.01 0.01 0.01 0.01 0.01 0.01 0.01 0.01 0.00 0.00 0.00 0.00 0.00 0.00 0.00 0.00 0.00 0.00 0.00 0.00 0.01 0.01 0.01 0.01 0.01 0.01 0.02 0.02 0.02 0.03 0.03 0.04 0.03 0.03 0.03 0.03 0.03 0.03 0.04 0.03 0.03
0.04 0.03 0.02 0.01 0.01 0.01 0.01 0.01 0.01 0.01 0.01 0.01 0.00 0.00 0.00 0.00 0.00 0.00 0.00 0.00 0.00 0.00 0.00 0.01 0.01 0.01 0.01 0.01 0.01 0.01 0.01 0.02 0.02 0.02 0.02 0.03 0.03 0.03 0.04 0.03 0.03 0.04 0.05 0.05
MSLP
1016.16 1016.97 1017.63 1018.09 1018.37 1018.49 1018.49 1018.42 1018.33 1018.25 1018.19 1018.16 1018.14 1018.13 1018.13 1018.12 1018.11 1018.09 1018.07 1018.03 1017.98 1017.89 1017.76 1017.59 1017.37 1017.12 1016.86 1016.63 1016.45 1016.35 1016.34 1016.42 1016.56 1016.74 1016.92 1017.07 1017.15 1017.14 1017.05 1016.90 1016.71 1016.53 1016.38 1016.31
1016.79 1017.49 1018.02 1018.38 1018.58 1018.67 1018.71 1018.74 1018.78 1018.85 1018.93 1019.00 1019.02 1018.99 1018.90 1018.75 1018.57 1018.38 1018.22 1018.08 1017.97 1017.88 1017.77 1017.64 1017.46 1017.24 1017.00 1016.76 1016.57 1016.45 1016.45 1016.54 1016.73 1016.98 1017.24 1017.45 1017.58 1017.60 1017.50 1017.31 1017.07 1016.82 1016.62 1016.50
1017.29 1017.85 1018.23 1018.47 1018.60 1018.69 1018.80 1018.95 1019.16 1019.41 1019.64 1019.81 1019.88 1019.81 1019.61 1019.30 1018.94 1018.57 1018.24 1018.00 1017.83 1017.73 1017.67 1017.60 1017.50 1017.34 1017.15 1016.94 1016.75 1016.64 1016.63 1016.74 1016.96 1017.25 1017.55 1017.81 1017.97 1018.01 1017.90 1017.69 1017.40 1017.10 1016.85 1016.69
1017.68 1018.07 1018.30 1018.43 1018.52 1018.64 1018.83 1019.14 1019.53 1019.96 1020.35 1020.63 1020.72 1020.61 1020.29 1019.80 1019.24 1018.67 1018.18 1017.82 1017.60 1017.50 1017.49 1017.51 1017.50 1017.44 1017.32 1017.16 1017.00 1016.89 1016.89 1016.99 1017.21 1017.51 1017.83 1018.11 1018.29 1018.33 1018.23 1018.00 1017.69 1017.37 1017.08 1016.89
1017.99 1018.21 1018.32 1018.36 1018.43 1018.60 1018.92 1019.39 1019.97 1020.59 1021.13 1021.49 1021.60 1021.42 1020.97 1020.30 1019.53 1018.76 1018.10 1017.62 1017.34 1017.24 1017.29 1017.40 1017.50 1017.54 1017.51 1017.41 1017.29 1017.19 1017.17 1017.25 1017.45 1017.73 1018.04 1018.31 1018.50 1018.56 1018.46 1018.24 1017.93 1017.60 1017.30 1017.10
1018.28 1018.36 1018.35 1018.35 1018.43 1018.68 1019.13 1019.77 1020.54 1021.33 1021.99 1022.42 1022.53 1022.27 1021.68 1020.83 1019.85 1018.89 1018.06 1017.45 1017.11 1017.01 1017.11 1017.30 1017.50 1017.65 1017.71 1017.67 1017.58 1017.48 1017.44 1017.49 1017.64 1017.88 1018.16 1018.42 1018.61 1018.68 1018.60 1018.40 1018.11 1017.80 1017.52 1017.32
1018.57 1018.54 1018.47 1018.45 1018.57 1018.91 1019.50 1020.31 1021.24 1022.16 1022.93 1023.40 1023.48 1023.14 1022.42 1021.39 1020.23 1019.09 1018.11 1017.39 1016.98 1016.87 1016.99 1017.24 1017.53 1017.76 1017.89 1017.91 1017.84 1017.74 1017.67 1017.68 1017.78 1017.97 1018.21 1018.45 1018.63 1018.71 1018.66 1018.50 1018.26 1017.98 1017.73 1017.55
1018.86 1018.77 1018.68 1018.68 1018.87 1019.31 1020.02 1020.96 1022.02 1023.04 1023.86 1024.35 1024.40 1023.98 1023.14 1021.97 1020.66 1019.37 1018.26 1017.44 1016.96 1016.82 1016.95 1017.24 1017.57 1017.87 1018.05 1018.11 1018.06 1017.96 1017.86 1017.82 1017.87 1018.01 1018.21 1018.43 1018.61 1018.70 1018.69 1018.57 1018.38 1018.16 1017.96 1017.82
1019.12 1019.03 1018.96 1019.01 1019.28 1019.81 1020.62 1021.65 1022.77 1023.84 1024.69 1025.16 1025.17 1024.69 1023.76 1022.50 1021.09 1019.70 1018.49 1017.60 1017.06 1016.89 1017.00 1017.29 1017.64 1017.96 1018.18 1018.26 1018.23 1018.12 1018.01 1017.94 1017.95 1018.05 1018.22 1018.41 1018.58 1018.69 1018.72 1018.65 1018.52 1018.35 1018.20 1018.10
1019.31 1019.27 1019.26 1019.38 1019.72 1020.32 1021.19 1022.25 1023.39 1024.45 1025.28 1025.72 1025.69 1025.17 1024.20 1022.90 1021.45 1020.02 1018.78 1017.84 1017.26 1017.04 1017.12 1017.39 1017.73 1018.05 1018.28 1018.37 1018.36 1018.26 1018.15 1018.07 1018.06 1018.14 1018.28 1018.45 1018.62 1018.74 1018.79 1018.77 1018.68 1018.57 1018.47 1018.41
1019.40 1019.44 1019.52 1019.72 1020.12 1020.76 1021.63 1022.67 1023.76 1024.77 1025.53 1025.92 1025.86 1025.33 1024.38 1023.11 1021.69 1020.29 1019.07 1018.13 1017.53 1017.27 1017.30 1017.52 1017.83 1018.13 1018.35 1018.46 1018.46 1018.39 1018.30 1018.24 1018.23 1018.30 1018.43 1018.60 1018.76 1018.89 1018.95 1018.94 1018.89 1018.82 1018.75 1018.73
1019.39 1019.54 1019.71 1019.98 1020.42 1021.06 1021.89 1022.85 1023.85 1024.75 1025.42 1025.76 1025.68 1025.18 1024.29 1023.11 1021.79 1020.48 1019.32 1018.42 1017.82 1017.53 1017.51 1017.68 1017.94 1018.20 1018.41 1018.53 1018.56 1018.53 1018.48 1018.45 1018.47 1018.55 1018.69 1018.84 1019.00 1019.12 1019.18 1019.19 1019.16 1019.10 1019.06 1019.06
1019.33 1019.58 1019.85 1020.17 1020.62 1021.22 1021.96 1022.80 1023.66 1024.43 1025.00 1025.27 1025.20 1024.75 1023.96 1022.92 1021.75 1020.58 1019.53 1018.69 1018.12 1017.81 1017.74 1017.84 1018.03 1018.25 1018.44 1018.57 1018.63 1018.65 1018.66 1018.69 1018.75 1018.86 1019.00 1019.16 1019.31 1019.42 1019.48 1019.49 1019.46 1019.42 1019.39 1019.40
1019.28 1019.63 1019.97 1020.33 1020.75 1021.28 1021.90 1022.59 1023.28 1023.90 1024.35 1024.57 1024.50 1024.12 1023.47 1022.60 1021.62 1020.62 1019.70 1018.95 1018.41 1018.08 1017.96 1017.99 1018.11 1018.27 1018.43 1018.56 1018.66 1018.73 1018.81 1018.89 1019.01 1019.16 1019.32 1019.49 1019.64 1019.74 1019.80 1019.81 1019.78 1019.75 1019.73 1019.74
1019.33 1019.75 1020.12 1020.49 1020.87 1021.30 1021.78 1022.30 1022.82 1023.27 1023.61 1023.77 1023.72 1023.42 1022.92 1022.23 1021.43 1020.61 1019.84 1019.18 1018.67 1018.32 1018.14 1018.09 1018.13 1018.23 1018.35 1018.48 1018.60 1018.72 1018.85 1019.01 1019.18 1019.37 1019.57 1019.75 1019.91 1020.02 1020.09 1020.11 1020.09 1020.07 1020.06 1020.08
1019.52 1019.97 1020.37 1020.71 1021.03 1021.35 1021.68 1022.03 1022.37 1022.67 1022.90 1023.01 1022.96 1022.75 1022.38 1021.86 1021.25 1020.59 1019.95 1019.37 1018.88 1018.51 1018.27 1018.13 1018.09 1018.11 1018.18 1018.29 1018.42 1018.58 1018.76 1018.96 1019.19 1019.42 1019.66 1019.88 1020.06 1020.20 1020.29 1020.34 1020.37 1020.37 1020.38 1020.41
1019.87 1020.33 1020.70 1021.00 1021.24 1021.44 1021.63 1021.82 1021.99 1022.15 1022.28 1022.33 1022.30 1022.16 1021.90 1021.53 1021.07 1020.55 1020.01 1019.49 1019.02 1018.62 1018.30 1018.08 1017.94 1017.88 1017.89 1017.97 1018.09 1018.26 1018.48 1018.73 1018.99 1019.27 1019.55 1019.81 1020.04 1020.23 1020.38 1020.49 1020.56 1020.62 1020.67 1020.72
1020.33 1020.76 1021.09 1021.32 1021.47 1021.57 1021.62 1021.66 1021.70 1021.73 1021.77 1021.77 1021.74 1021.65 1021.48 1021.22 1020.88 1020.47 1020.01 1019.53 1019.06 1018.62 1018.24 1017.92 1017.69 1017.55 1017.49 1017.52 1017.62 1017.79 1018.02 1018.29 1018.59 1018.91 1019.23 1019.54 1019.83 1020.09 1020.32 1020.51 1020.67 1020.79 1020.90 1020.98
1020.79 1021.17 1021.43 1021.59 1021.66 1021.65 1021.59 1021.50 1021.42 1021.36 1021.32 1021.28 1021.25 1021.18 1021.07 1020.89 1020.64 1020.30 1019.90 1019.45 1018.97 1018.50 1018.05 1017.67 1017.36 1017.14 1017.01 1016.99 1017.05 1017.20 1017.42 1017.70 1018.02 1018.36 1018.73 1019.09 1019.45 1019.80 1020.12 1020.41 1020.66 1020.87 1021.04 1021.16
1021.14 1021.44 1021.64 1021.72 1021.70 1021.60 1021.44 1021.27 1021.10 1020.96 1020.86 1020.79 1020.75 1020.70 1020.63 1020.51 1020.31 1020.03 1019.67 1019.24 1018.76 1018.26 1017.78 1017.34 1016.97 1016.69 1016.50 1016.43 1016.45 1016.57 1016.77 1017.03 1017.36 1017.72 1018.11 1018.53 1018.95 1019.38 1019.80 1020.19 1020.54 1020.84 1021.07 1021.23
1021.26 1021.49 1021.61 1021.61 1021.52 1021.35 1021.13 1020.88 1020.66 1020.47 1020.33 1020.25 1020.20 1020.17 1020.13 1020.04 1019.89 1019.65 1019.32 1018.92 1018.45 1017.95 1017.45 1016.98 1016.57 1016.25 1016.03 1015.91 1015.89 1015.97 1016.14 1016.38 1016.69 1017.05 1017.46 1017.91 1018.39 1018.89 1019.38 1019.86 1020.30 1020.68 1020.97 1021.18
1021.11 1021.26 1021.30 1021.24 1021.09 1020.87 1020.61 1020.33 1020.08 1019.87 1019.73 1019.64 1019.60 1019.58 1019.56 1019.51 1019.39 1019.19 1018.90 1018.53 1018.09 1017.61 1017.12 1016.65 1016.24 1015.90 1015.65 1015.49 1015.44 1015.48 1015.60 1015.81 1016.08 1016.43 1016.83 1017.29 1017.80 1018.34 1018.90 1019.45 1019.95 1020.39 1020.73 1020.97
1020.69 1020.76 1020.73 1020.62 1020.44 1020.19 1019.92 1019.65 1019.41 1019.21 1019.08 1019.01 1018.99 1019.00 1019.01 1018.98 1018.90 1018.73 1018.49 1018.15 1017.75 1017.31 1016.85 1016.40 1016.00 1015.66 1015.40 1015.23 1015.14 1015.13 1015.21 1015.36 1015.59 1015.90 1016.28 1016.72 1017.23 1017.79 1018.37 1018.95 1019.49 1019.97 1020.35 1020.62
1020.05 1020.06 1019.99 1019.85 1019.65 1019.42 1019.17 1018.93 1018.73 1018.58 1018.49 1018.46 1018.48 1018.51 1018.55 1018.55 1018.49 1018.37 1018.16 1017.87 1017.51 1017.11 1016.69 1016.28 1015.90 1015.57 1015.31 1015.12 1014.99 1014.94 1014.97 1015.06 1015.23 1015.48 1015.81 1016.21 1016.70 1017.24 1017.81 1018.39 1018.95 1019.44 1019.84 1020.13
1019.33 1019.28 1019.18 1019.04 1018.86 1018.66 1018.47 1018.30 1018.17 1018.09 1018.06 1018.09 1018.14 1018.22 1018.28 1018.30 1018.27 1018.17 1017.99 1017.73 1017.41 1017.06 1016.67 1016.30 1015.94 1015.63 1015.36 1015.15 1014.99 1014.89 1014.86 1014.89 1014.99 1015.16 1015.42 1015.77 1016.20 1016.69 1017.23 1017.79 1018.33 1018.82 1019.24 1019.55
1018.62 1018.55 1018.44 1018.32 1018.18 1018.05 1017.94 1017.87 1017.83 1017.84 1017.89 1017.97 1018.07 1018.18 1018.26 1018.30 1018.28 1018.19 1018.02 1017.78 1017.49 1017.16 1016.81 1016.45 1016.11 1015.80 1015.52 1015.29 1015.09 1014.94 1014.85 1014.81 1014.83 1014.93 1015.11 1015.38 1015.73 1016.17 1016.66 1017.17 1017.69 1018.17 1018.58 1018.91
Thickness
5744 5727 5720 5727 5731 5731 5727 5722 5720 5729 5745 5739 5730 5731 5738 5744 5743 5739 5736 5735 5736 5737 5741 5741 5740 5738 5734 5731 5729 5727 5724 5723 5722 5719 5716 5713 5712 5712 5713 5713 5714 5714 5714 5714
5723 5720 5735 5740 5738 5733 5727 5719 5719 5729 5742 5736 5727 5728 5737 5741 5742 5742 5739 5736 5736 5735 5735 5735 5735 5733 5731 5728 5726 5724 5722 5721 5720 5718 5716 5713 5711 5710 5710 5711 5712 5712 5713 5713
5717 5729 5743 5738 5730 5726 5723 5718 5719 5721 5731 5732 5724 5716 5725 5736 5742 5743 5743 5741 5739 5737 5734 5732 5731 5730 5728 5725 5724 5723 5721 5719 5718 5717 5714 5711 5709 5707 5706 5707 5708 5710 5711 5712
5722 5735 5736 5730 5726 5726 5714 5729 5727 5723 5711 5702 5712 5690 5711 5725 5730 5735 5737 5737 5736 5737 5735 5732 5730 5727 5727 5725 5724 5722 5719 5717 5716 5715 5712 5708 5704 5702 5704 5705 5707 5709 5710 5710
5719 5730 5728 5723 5728 5730 5723 5732 5727 5720 5709 5699 5702 5690 5700 5718 5720 5728 5735 5736 5737 5737 5735 5732 5730 5728 5727 5725 5722 5720 5717 5715 5713 5712 5710 5707 5704 5704 5704 5705 5705 5706 5707 5708
5724 5735 5734 5731 5736 5736 5732 5723 5715 5704 5694 5681 5695 5687 5693 5708 5721 5729 5734 5736 5737 5736 5734 5732 5730 5726 5723 5721 5719 5716 5713 5711 5710 5710 5709 5707 5704 5703 5702 5702 5702 5703 5704 5706
5710 5721 5732 5736 5723 5725 5719 5695 5675 5672 5667 5674 5696 5690 5697 5722 5732 5734 5734 5735 5736 5734 5731 5727 5724 5721 5718 5715 5714 5712 5709 5707 5707 5707 5706 5706 5704 5703 5702 5701 5701 5701 5701 5702
5689 5694 5718 5727 5720 5711 5709 5696 5671 5661 5661 5672 5691 5687 5706 5731 5737 5739 5739 5737 5734 5731 5729 5727 5724 5720 5717 5714 5712 5709 5707 5705 5704 5704 5704 5705 5704 5703 5702 5702 5702 5701 5701 5702
5688 5692 5720 5728 5729 5720 5703 5695 5696 5677 5673 5667 5677 5694 5712 5729 5729 5731 5732 5731 5729 5729 5728 5725 5722 5719 5716 5712 5710 5709 5707 5704 5703 5703 5703 5703 5703 5702 5702 5702 5702 5702 5702 5702
5698 5688 5707 5720 5723 5720 5714 5702 5682 5671 5659 5655 5670 5680 5688 5709 5715 5722 5724 5724 5725 5726 5725 5722 5720 5718 5715 5712 5710 5708 5706 5703 5702 5702 5702 5702 5702 5702 5702 5701 5700 5701 5701 5701
5699 5684 5691 5703 5700 5699 5701 5696 5685 5672 5667 5655 5654 5672 5709 5712 5717 5719 5721 5723 5723 5723 5722 5720 5718 5717 5714 5711 5708 5706 5703 5701 5700 5700 5700 5700 5700 5700 5700 5700 5700 5699 5699 5699
5692 5677 5673 5690 5708 5714 5705 5697 5684 5667 5664 5662 5657 5673 5719 5718 5720 5720 5720 5721 5723 5723 5721 5719 5716 5713 5710 5708 5706 5704 5702 5700 5699 5699 5698 5698 5698 5698 5698 5698 5698 5698 5697 5697
5686 5670 5660 5667 5681 5695 5696 5697 5691 5679 5667 5658 5655 5675 5714 5715 5716 5719 5718 5717 5718 5718 5717 5714 5712 5710 5708 5706 5705 5703 5701 5700 5699 5698 5696 5696 5696 5696 5696 5695 5696 5695 5695 5694
5685 5666 5660 5659 5669 5680 5684 5690 5691 5677 5662 5661 5667 5680 5700 5706 5709 5713 5715 5715 5714 5715 5714 5711 5708 5707 5707 5706 5704 5702 5701 5700 5699 5697 5695 5694 5694 5694 5694 5694 5694 5693 5693 5692
5675 5662 5667 5673 5683 5685 5685 5688 5688 5682 5677 5669 5677 5683 5696 5705 5709 5713 5714 5712 5711 5711 5711 5710 5707 5706 5706 5705 5703 5702 5700 5700 5699 5696 5694 5694 5693 5693 5692 5692 5691 5690 5690 5690
5664 5659 5662 5665 5677 5680 5680 5686 5688 5687 5686 5683 5685 5688 5705 5711 5710 5709 5709 5710 5708 5708 5710 5711 5709 5707 5705 5705 5703 5701 5700 5699 5698 5696 5694 5694 5692 5691 5690 5689 5688 5687 5686 5686
5652 5651 5646 5646 5662 5666 5663 5683 5686 5687 5691 5690 5683 5692 5704 5703 5705 5708 5709 5710 5710 5709 5710 5711 5710 5709 5708 5706 5705 5702 5701 5699 5697 5695 5694 5693 5691 5689 5688 5687 5685 5684 5683 5683
5642 5641 5635 5636 5645 5638 5669 5694 5695 5690 5692 5695 5696 5700 5704 5706 5710 5713 5714 5712 5710 5711 5711 5712 5711 5710 5709 5708 5706 5704 5700 5698 5696 5694 5692 5691 5689 5687 5686 5684 5682 5681 5680 5679
5645 5639 5629 5627 5630 5643 5669 5687 5690 5684 5683 5696 5695 5699 5703 5707 5706 5705 5712 5714 5713 5714 5714 5714 5714 5712 5710 5707 5706 5702 5698 5696 5694 5692 5690 5690 5688 5685 5683 5681 5679 5678 5677 5676
5640 5638 5627 5622 5624 5630 5663 5689 5696 5685 5673 5694 5697 5697 5698 5698 5685 5692 5708 5712 5713 5715 5715 5713 5713 5711 5708 5707 5706 5701 5697 5694 5692 5692 5691 5690 5688 5685 5682 5680 5678 5677 5675 5673
5625 5623 5620 5618 5620 5637 5670 5686 5686 5661 5671 5694 5697 5697 5697 5694 5696 5703 5709 5710 5712 5712 5713 5712 5710 5708 5708 5707 5704 5699 5696 5694 5694 5693 5691 5688 5687 5685 5682 5679 5677 5674 5672 5670
5620 5617 5617 5616 5615 5633 5675 5677 5671 5675 5688 5692 5693 5696 5697 5700 5703 5705 5706 5706 5707 5707 5708 5708 5706 5705 5705 5705 5702 5697 5694 5695 5693 5691 5688 5685 5684 5683 5680 5676 5673 5671 5668 5665
5622 5628 5627 5629 5637 5659 5672 5676 5681 5684 5683 5687 5690 5695 5696 5696 5698 5700 5701 5702 5703 5704 5704 5704 5703 5701 5701 5702 5701 5696 5695 5694 5691 5687 5684 5682 5680 5679 5677 5674 5670 5667 5665 5662
5622 5632 5629 5630 5644 5656 5665 5671 5676 5679 5680 5685 5689 5692 5693 5693 5695 5696 5697 5697 5698 5699 5699 5700 5698 5696 5696 5697 5697 5697 5695 5692 5688 5684 5681 5678 5676 5674 5672 5671 5668 5665 5662 5660
5618 5623 5624 5628 5640 5648 5657 5663 5669 5673 5677 5680 5684 5688 5690 5691 5692 5693 5693 5693 5694 5695 5695 5695 5695 5693 5693 5693 5693 5693 5692 5690 5685 5681 5678 5675 5673 5670 5668 5666 5665 5663 5662 5661
5616 5619 5619 5625 5638 5639 5648 5659 5664 5666 5669 5673 5677 5681 5686 5688 5688 5689 5689 5690 5690 5690 5690 5690 5690 5689 5689 5689 5689 5689 5689 5687 5683 5678 5674 5672 5669 5666 5664 5661 5658 5657 5657 5657